GW4545 Weather Reports


time (UTC)temp
C
wind
direction
speed
KPH
gust
KPH
rain 1hr
cm
rain 24hr
cm
rain mn
cm
humidity
%
barometer
mb
20260905043058 11 0 0.0 3.2 0.00 0.05 0.03 93 1016.7
20260905041548 11 271 1.6 6.4 0.00 0.05 0.03 93 1016.6
20260905040106 11 0 0.0 4.8 0.00 0.05 0.03 92 1016.5
20260905034610 11 260 0.0 6.4 0.00 0.05 0.03 92 1016.4
20260905033114 12 267 3.2 6.4 0.00 0.05 0.03 92 1016.1
20260905031612 12 254 1.6 4.8 0.00 0.05 0.03 92 1016.0
20260905024601 13 171 1.6 4.8 0.00 0.05 0.03 90 1015.7
20260905023125 13 0 1.6 6.4 0.00 0.05 0.03 88 1015.5
20260905021600 14 208 3.2 11.3 0.00 0.05 0.03 87 1015.6
20260905020055 15 211 1.6 6.4 0.00 0.05 0.03 87 1015.7
20260905014554 15 220 1.6 6.4 0.00 0.08 0.03 85 1015.6
20260905013049 16 271 4.8 9.7 0.00 0.08 0.03 81 1015.3
20260905011550 16 173 0.0 3.2 0.00 0.08 0.03 76 1015.4
20260905010107 16 0 0.0 1.6 0.00 0.08 0.03 77 1015.4
20260905004607 16 0 0.0 6.4 0.00 0.10 0.03 78 1015.5
20260905003056 16 126 0.0 3.2 0.00 0.10 0.03 77 1015.3
20260905001559 17 198 0.0 6.4 0.00 0.10 0.03 78 1015.3
20260904234550 17 0 1.6 8.0 0.00 0.15 0.03 78 1014.8
20260904233058 16 69 1.6 8.0 0.00 0.15 0.03 79 1014.9
20260904231559 16 0 0.0 8.0 0.00 0.15 0.03 81 1014.7
20260904230109 16 223 4.8 11.3 0.00 0.15 0.03 81 1014.7
20260904224549 17 172 3.2 6.4 0.00 0.23 0.03 77 1014.5
20260904223058 17 0 0.0 3.2 0.00 0.23 0.03 77 1014.4
20260904221557 17 136 1.6 9.7 0.00 0.23 0.03 73 1014.5
20260904214548 17 17 1.6 6.4 0.00 0.38 0.03 78 1014.4
20260904213058 16 0 0.0 4.8 0.00 0.38 0.03 79 1014.3
20260904211554 16 191 0.0 9.7 0.00 0.38 0.03 76 1014.1
20260904210048 17 235 1.6 11.3 0.00 0.38 0.03 73 1014.1
20260904204549 17 0 0.0 6.4 0.00 0.51 0.03 77 1014.0
20260904203101 16 254 1.6 6.4 0.00 0.51 0.03 80 1014.1
20260904201550 16 232 1.6 4.8 0.00 0.51 0.03 85 1014.1
20260904200055 15 119 0.0 4.8 0.00 0.51 0.03 85 1014.3
20260904194555 16 0 0.0 4.8 0.00 0.64 0.03 84 1014.3
20260904193052 15 165 0.0 8.0 0.00 0.64 0.03 83 1014.4
20260904191556 15 250 1.6 6.4 0.00 0.64 0.03 83 1014.3
20260904190058 15 111 0.0 4.8 0.00 0.64 0.03 85 1014.6
20260904184555 14 0 1.6 4.8 0.00 0.69 0.03 85 1014.5
20260904183107 14 321 1.6 6.4 0.00 0.69 0.03 89 1014.5
20260904181559 13 360 1.6 4.8 0.00 0.69 0.03 90 1014.5
20260904180059 13 0 1.6 4.8 0.00 0.69 0.03 91 1014.3
20260904174550 13 11 1.6 4.8 0.00 0.69 0.03 94 1014.2
20260904173101 12 0 0.0 4.8 0.03 0.69 0.03 95 1014.0
20260904171610 12 0 1.6 3.2 0.03 0.69 0.03 96 1013.9
20260904170105 12 348 0.0 3.2 0.03 0.69 0.03 96 1014.0
20260904164600 12 0 0.0 3.2 0.03 0.74 0.03 97 1013.9
20260904163057 12 0 0.0 3.2 0.00 0.71 0.00 96 1013.7
20260904161552 11 0 0.0 1.6 0.00 0.71 0.00 96 1013.7
20260904160052 11 0 0.0 0.0 0.00 0.71 0.00 96 1013.7
20260904154559 11 0 0.0 0.0 0.00 0.84 0.00 96 1013.6
20260904153109 11 0 0.0 3.2 0.00 0.84 0.00 96 1013.6
20260904151554 11 0 0.0 1.6 0.00 0.84 0.00 96 1013.3
20260904144603 11 0 0.0 1.6 0.00 0.99 0.00 96 1012.9
20260904143055 11 0 0.0 3.2 0.00 0.99 0.00 96 1012.8
20260904141552 11 234 1.6 3.2 0.00 0.99 0.00 96 1012.6
20260904140051 11 0 0.0 1.6 0.00 0.99 0.00 96 1012.4
20260904134601 11 0 0.0 3.2 0.00 1.17 0.00 96 1012.2
20260904133053 11 0 0.0 1.6 0.00 1.17 0.00 96 1012.2
20260904131601 11 88 0.0 1.6 0.00 1.17 0.00 96 1012.2
20260904130048 11 0 0.0 0.0 0.00 1.17 0.00 96 1012.0
20260904124551 11 0 0.0 0.0 0.00 1.32 0.00 96 1012.0
20260904123049 11 0 0.0 0.0 0.00 1.32 0.00 96 1011.9
20260904121552 11 0 0.0 0.0 0.00 1.32 0.00 96 1011.8
20260904120057 11 0 0.0 0.0 0.00 1.32 0.00 96 1011.7
20260904114557 11 0 0.0 1.6 0.00 1.42 0.00 96 1011.7
20260904113053 11 0 0.0 0.0 0.00 1.42 0.00 96 1011.5
20260904111601 11 0 0.0 3.2 0.00 1.42 0.00 96 1011.5
20260904110100 11 0 0.0 4.8 0.00 1.42 0.00 96 1011.4
20260904104558 10 0 0.0 0.0 0.00 1.47 0.00 96 1011.2
20260904103056 10 238 1.6 4.8 0.00 1.47 0.00 96 1011.2
20260904101553 10 246 0.0 3.2 0.00 1.47 0.00 95 1011.1
20260904100107 10 268 1.6 3.2 0.00 1.47 0.00 95 1011.0
20260904094603 11 0 0.0 1.6 0.00 1.47 0.00 95 1011.1
20260904093051 11 0 0.0 4.8 0.00 1.47 0.00 95 1011.0
20260904091559 11 244 1.6 4.8 0.00 1.47 0.00 95 1011.1
20260904090057 11 0 0.0 1.6 0.00 1.47 0.00 94 1011.0
20260904084552 11 0 0.0 3.2 0.00 1.52 0.00 94 1010.9
20260904083104 11 0 0.0 1.6 0.00 1.52 0.00 95 1010.9
20260904081556 11 0 0.0 3.2 0.00 1.52 0.00 95 1010.8
20260904080051 12 0 0.0 3.2 0.00 1.52 0.00 95 1010.9
20260904074551 11 0 0.0 0.0 0.00 1.52 0.00 95 1010.8
20260904073051 12 270 0.0 1.6 0.00 1.52 0.00 93 1010.8
20260904071554 12 262 1.6 4.8 0.00 1.52 0.00 94 1010.8
20260904064553 12 0 0.0 0.0 0.00 1.52 1.52 94 1010.8
20260904063105 12 0 0.0 1.6 0.00 1.52 1.52 94 1010.8
20260904061550 12 0 0.0 4.8 0.03 1.52 1.52 94 1010.9
20260904054628 12 238 3.2 4.8 0.03 1.52 1.52 94 1011.0
20260904053053 12 224 0.0 3.2 0.03 1.52 1.52 93 1010.9
20260904051554 12 0 0.0 3.2 0.00 1.47 1.47 93 1011.1
20260904050050 12 224 0.0 1.6 0.00 1.47 1.47 93 1011.2
20260904044557 12 0 0.0 1.6 0.00 1.47 1.47 92 1011.2